Precipitable_Water
0.62 0.61 0.61 0.61 0.61 0.62 0.62 0.62 0.63 0.64 0.63 0.63 0.63 0.63 0.66 0.64 0.64 0.67 0.73 0.73 0.72 0.72 0.74 0.73 0.68 0.67 0.54 0.36 0.37 0.42 0.67 0.80 0.83 0.63 0.48 0.36 0.31 0.33 0.29 0.31 0.32 0.31 0.30 0.29 0.30 0.32 0.32
0.59 0.60 0.58 0.59 0.58 0.58 0.57 0.57 0.57 0.57 0.58 0.59 0.60 0.59 0.59 0.61 0.63 0.61 0.60 0.63 0.69 0.69 0.66 0.72 0.77 0.72 0.54 0.34 0.45 0.50 0.49 0.62 0.65 0.63 0.52 0.50 0.40 0.39 0.36 0.33 0.31 0.33 0.33 0.32 0.32 0.30 0.32
0.60 0.58 0.58 0.58 0.57 0.57 0.56 0.55 0.55 0.56 0.55 0.56 0.57 0.58 0.58 0.57 0.57 0.58 0.58 0.54 0.53 0.60 0.65 0.70 0.76 0.77 0.53 0.39 0.46 0.52 0.51 0.47 0.56 0.51 0.48 0.46 0.49 0.42 0.41 0.34 0.37 0.35 0.31 0.31 0.29 0.29 0.28
0.61 0.57 0.56 0.54 0.54 0.53 0.54 0.54 0.56 0.54 0.53 0.54 0.53 0.54 0.55 0.57 0.56 0.56 0.58 0.58 0.49 0.46 0.55 0.65 0.75 0.73 0.49 0.58 0.55 0.53 0.51 0.48 0.47 0.53 0.55 0.56 0.58 0.50 0.43 0.41 0.37 0.34 0.34 0.26 0.25 0.35 0.36
0.58 0.58 0.52 0.52 0.52 0.53 0.52 0.49 0.50 0.52 0.51 0.51 0.55 0.57 0.56 0.55 0.57 0.59 0.56 0.55 0.50 0.53 0.58 0.67 0.59 0.57 0.45 0.66 0.56 0.57 0.59 0.52 0.46 0.49 0.64 0.63 0.61 0.51 0.46 0.34 0.29 0.32 0.26 0.27 0.22 0.30 0.35
0.53 0.53 0.53 0.50 0.51 0.49 0.49 0.48 0.48 0.49 0.51 0.53 0.53 0.54 0.54 0.53 0.55 0.56 0.55 0.46 0.45 0.58 0.61 0.61 0.62 0.41 0.49 0.49 0.51 0.70 0.77 0.71 0.54 0.43 0.57 0.55 0.52 0.46 0.41 0.33 0.23 0.26 0.26 0.27 0.23 0.26 0.32
0.55 0.52 0.55 0.49 0.50 0.50 0.49 0.50 0.49 0.48 0.49 0.51 0.52 0.50 0.47 0.51 0.55 0.54 0.48 0.35 0.26 0.31 0.40 0.34 0.34 0.31 0.38 0.60 0.67 0.55 0.66 0.66 0.60 0.45 0.40 0.49 0.40 0.37 0.39 0.39 0.34 0.30 0.27 0.25 0.28 0.29 0.27
0.53 0.57 0.55 0.52 0.50 0.50 0.48 0.47 0.46 0.49 0.51 0.48 0.48 0.49 0.47 0.51 0.52 0.52 0.43 0.34 0.38 0.43 0.26 0.34 0.33 0.35 0.40 0.46 0.49 0.54 0.59 0.47 0.48 0.43 0.42 0.42 0.34 0.43 0.45 0.41 0.37 0.32 0.28 0.27 0.30 0.30 0.27
0.50 0.50 0.52 0.51 0.46 0.48 0.48 0.44 0.44 0.48 0.47 0.46 0.47 0.49 0.48 0.52 0.51 0.43 0.38 0.39 0.54 0.54 0.31 0.25 0.33 0.34 0.34 0.36 0.33 0.42 0.53 0.48 0.44 0.40 0.40 0.33 0.37 0.44 0.42 0.40 0.36 0.35 0.31 0.30 0.28 0.29 0.29
0.49 0.47 0.50 0.49 0.46 0.46 0.45 0.43 0.49 0.50 0.46 0.46 0.47 0.49 0.50 0.55 0.41 0.42 0.40 0.53 0.58 0.58 0.22 0.18 0.24 0.30 0.34 0.35 0.28 0.32 0.51 0.43 0.45 0.39 0.41 0.37 0.35 0.38 0.37 0.35 0.37 0.32 0.39 0.35 0.31 0.27 0.18
0.50 0.48 0.51 0.49 0.46 0.47 0.45 0.44 0.45 0.48 0.46 0.46 0.49 0.50 0.52 0.57 0.44 0.39 0.44 0.55 0.56 0.54 0.07 0.14 0.19 0.36 0.38 0.26 0.26 0.34 0.47 0.42 0.32 0.42 0.41 0.37 0.38 0.37 0.36 0.37 0.41 0.36 0.40 0.37 0.34 0.29 0.26
0.47 0.47 0.48 0.47 0.45 0.46 0.46 0.47 0.48 0.47 0.46 0.49 0.48 0.48 0.53 0.52 0.50 0.53 0.57 0.52 0.47 0.22 0.07 0.12 0.24 0.27 0.28 0.29 0.26 0.36 0.40 0.47 0.41 0.36 0.40 0.36 0.48 0.43 0.36 0.39 0.39 0.43 0.38 0.36 0.36 0.32 0.22
0.44 0.45 0.43 0.49 0.49 0.46 0.46 0.45 0.44 0.44 0.45 0.47 0.48 0.48 0.50 0.57 0.38 0.57 0.55 0.39 0.18 0.14 0.18 0.13 0.19 0.23 0.22 0.26 0.27 0.31 0.31 0.30 0.29 0.29 0.31 0.33 0.31 0.46 0.47 0.40 0.43 0.40 0.37 0.28 0.26 0.24 0.22
0.47 0.46 0.47 0.53 0.53 0.44 0.44 0.45 0.44 0.44 0.44 0.48 0.48 0.50 0.52 0.55 0.60 0.60 0.48 0.27 0.13 0.17 0.17 0.22 0.20 0.21 0.21 0.28 0.29 0.30 0.34 0.27 0.30 0.33 0.28 0.32 0.26 0.31 0.45 0.42 0.38 0.39 0.37 0.30 0.22 0.23 0.26
0.45 0.43 0.43 0.49 0.45 0.44 0.44 0.45 0.44 0.41 0.44 0.48 0.51 0.46 0.47 0.52 0.62 0.61 0.35 0.16 0.15 0.19 0.24 0.21 0.18 0.15 0.21 0.26 0.32 0.30 0.32 0.35 0.30 0.29 0.25 0.26 0.28 0.33 0.33 0.41 0.43 0.39 0.35 0.42 0.33 0.34 0.29
0.44 0.43 0.45 0.43 0.49 0.50 0.48 0.44 0.44 0.41 0.43 0.50 0.42 0.40 0.40 0.58 0.63 0.51 0.28 0.17 0.19 0.33 0.33 0.26 0.16 0.19 0.18 0.24 0.26 0.33 0.36 0.45 0.43 0.41 0.36 0.31 0.27 0.37 0.37 0.39 0.43 0.42 0.45 0.35 0.36 0.24 0.23
0.37 0.47 0.39 0.44 0.46 0.46 0.42 0.44 0.42 0.40 0.42 0.49 0.40 0.31 0.45 0.59 0.59 0.39 0.19 0.19 0.22 0.27 0.32 0.26 0.21 0.21 0.21 0.22 0.26 0.24 0.35 0.44 0.48 0.47 0.37 0.30 0.27 0.31 0.41 0.36 0.33 0.37 0.37 0.39 0.38 0.34 0.26
0.39 0.37 0.44 0.46 0.44 0.42 0.40 0.41 0.39 0.40 0.43 0.46 0.38 0.24 0.52 0.61 0.33 0.32 0.24 0.24 0.28 0.25 0.30 0.30 0.28 0.25 0.25 0.24 0.21 0.21 0.29 0.35 0.47 0.50 0.41 0.44 0.31 0.19 0.24 0.36 0.44 0.43 0.41 0.40 0.33 0.31 0.34
0.40 0.39 0.40 0.45 0.44 0.43 0.41 0.41 0.42 0.42 0.44 0.41 0.32 0.33 0.50 0.57 0.24 0.24 0.32 0.28 0.26 0.25 0.27 0.29 0.27 0.29 0.30 0.25 0.20 0.22 0.23 0.36 0.40 0.39 0.47 0.44 0.38 0.27 0.28 0.33 0.37 0.36 0.41 0.43 0.41 0.39 0.31
0.39 0.40 0.42 0.42 0.43 0.43 0.39 0.42 0.43 0.45 0.45 0.45 0.35 0.23 0.37 0.46 0.39 0.30 0.26 0.25 0.23 0.29 0.29 0.34 0.31 0.32 0.28 0.25 0.29 0.23 0.23 0.25 0.31 0.33 0.36 0.48 0.38 0.36 0.27 0.31 0.42 0.34 0.39 0.43 0.40 0.33 0.31
0.39 0.40 0.42 0.42 0.44 0.41 0.40 0.43 0.43 0.46 0.46 0.43 0.35 0.27 0.32 0.27 0.29 0.35 0.33 0.30 0.24 0.22 0.30 0.35 0.31 0.31 0.29 0.25 0.25 0.22 0.24 0.26 0.27 0.28 0.34 0.40 0.29 0.31 0.33 0.37 0.38 0.37 0.36 0.36 0.34 0.37 0.32
0.36 0.36 0.43 0.44 0.43 0.41 0.41 0.42 0.42 0.46 0.48 0.41 0.27 0.26 0.34 0.30 0.37 0.31 0.33 0.28 0.25 0.26 0.28 0.28 0.28 0.33 0.33 0.28 0.27 0.23 0.25 0.25 0.24 0.29 0.32 0.39 0.28 0.33 0.29 0.32 0.32 0.29 0.33 0.34 0.35 0.38 0.37
0.51 0.46 0.38 0.40 0.42 0.45 0.47 0.46 0.45 0.45 0.47 0.37 0.38 0.41 0.37 0.26 0.30 0.32 0.29 0.31 0.27 0.30 0.32 0.34 0.34 0.33 0.32 0.34 0.37 0.36 0.36 0.33 0.30 0.26 0.25 0.28 0.30 0.28 0.21 0.31 0.31 0.23 0.27 0.28 0.31 0.34 0.30
0.62 0.61 0.57 0.56 0.57 0.59 0.59 0.58 0.56 0.52 0.50 0.42 0.42 0.41 0.31 0.22 0.31 0.27 0.35 0.36 0.30 0.30 0.30 0.37 0.39 0.36 0.42 0.50 0.47 0.43 0.40 0.37 0.34 0.31 0.30 0.22 0.27 0.29 0.23 0.28 0.15 0.20 0.28 0.31 0.29 0.26 0.27
0.61 0.63 0.62 0.62 0.62 0.62 0.63 0.63 0.61 0.59 0.55 0.48 0.47 0.41 0.35 0.23 0.27 0.31 0.35 0.33 0.35 0.38 0.37 0.38 0.40 0.45 0.50 0.44 0.35 0.30 0.28 0.29 0.29 0.30 0.29 0.30 0.25 0.20 0.17 0.20 0.20 0.20 0.20 0.22 0.23 0.21 0.29
0.59 0.59 0.60 0.62 0.64 0.64 0.66 0.66 0.66 0.61 0.58 0.53 0.48 0.50 0.43 0.31 0.26 0.32 0.33 0.39 0.33 0.35 0.38 0.39 0.48 0.55 0.49 0.40 0.32 0.22 0.19 0.23 0.22 0.26 0.37 0.32 0.32 0.23 0.26 0.18 0.12 0.18 0.27 0.34 0.32 0.16 0.33
0.58 0.59 0.59 0.59 0.61 0.64 0.63 0.66 0.67 0.65 0.61 0.56 0.48 0.52 0.44 0.31 0.38 0.35 0.31 0.34 0.42 0.40 0.36 0.41 0.43 0.44 0.49 0.34 0.27 0.24 0.22 0.29 0.21 0.22 0.25 0.27 0.28 0.20 0.24 0.22 0.20 0.28 0.34 0.41 0.19 0.20 0.35
0.60 0.59 0.57 0.57 0.59 0.62 0.63 0.64 0.67 0.66 0.64 0.59 0.50 0.57 0.45 0.35 0.37 0.44 0.45 0.42 0.45 0.44 0.35 0.42 0.40 0.42 0.39 0.30 0.28 0.27 0.25 0.27 0.25 0.28 0.30 0.24 0.24 0.24 0.25 0.20 0.15 0.35 0.37 0.27 0.28 0.31 0.33
0.63 0.62 0.63 0.61 0.60 0.59 0.62 0.63 0.66 0.68 0.67 0.66 0.51 0.61 0.61 0.45 0.42 0.52 0.54 0.59 0.53 0.50 0.46 0.46 0.40 0.40 0.40 0.34 0.32 0.30 0.26 0.28 0.26 0.20 0.30 0.23 0.28 0.24 0.27 0.23 0.33 0.39 0.41 0.38 0.34 0.34 0.37
Wind_Speed
31 31 30 30 30 30 30 30 30 30 30 30 31 31 32 32 32 33 34 34 35 35 36 35 33 30 27 25 23 22 19 16 16 17 17 17 16 15 16 14 14 15 15 14 16 15 15
32 32 31 31 30 30 30 30 30 30 30 30 30 30 31 32 33 33 34 35 35 36 36 36 34 31 29 28 23 22 21 22 21 20 18 18 18 18 16 16 16 13 16 16 16 17 16
32 32 31 31 30 29 29 29 29 29 29 29 30 30 31 31 32 33 34 35 36 36 37 37 35 32 32 31 26 26 24 23 22 24 24 23 21 18 16 16 17 15 15 16 16 15 15
32 32 31 31 30 30 29 29 29 29 29 29 29 30 30 30 32 33 33 34 35 36 36 34 34 33 34 30 30 30 29 27 26 25 23 22 21 19 18 16 14 14 14 14 11 8 8
32 31 31 31 30 30 29 29 29 29 28 28 28 28 29 30 30 30 31 33 35 33 31 29 29 31 33 30 29 28 29 27 26 25 24 21 21 19 18 18 16 14 14 14 12 11 8
33 33 32 31 31 31 30 30 29 29 28 28 28 28 28 28 29 30 30 32 28 26 24 23 25 26 28 27 24 23 24 24 25 25 24 23 20 20 18 18 18 17 15 14 15 12 11
34 33 33 33 32 32 31 30 30 29 29 28 28 28 28 28 28 28 28 24 22 23 22 23 25 26 24 22 25 24 26 22 23 26 28 25 25 25 24 23 18 17 16 14 13 14 14
34 34 33 33 32 31 31 30 29 28 28 27 27 27 27 27 27 27 24 20 20 23 26 29 31 32 31 27 25 25 24 24 25 25 27 25 31 25 22 23 22 19 17 17 17 15 16
35 35 34 33 32 32 31 30 29 29 28 28 28 27 27 26 26 24 22 21 21 23 23 24 24 25 25 30 32 32 26 25 25 26 28 32 24 27 25 23 23 23 24 20 19 15 16
36 36 35 33 32 31 30 30 30 29 29 29 29 28 27 26 24 22 20 20 22 21 21 19 15 16 16 19 24 32 32 30 27 28 26 28 29 23 24 27 26 25 22 22 19 16 15
37 35 34 34 33 32 32 32 31 31 30 30 29 28 27 26 24 23 22 22 21 17 17 11 10 10 11 15 16 15 29 28 33 30 25 25 24 29 23 24 22 21 18 21 20 18 17
37 36 36 35 35 35 34 33 33 33 32 31 31 30 28 26 25 24 23 21 17 15 17 12 9 9 8 14 14 12 17 25 26 27 27 27 22 23 28 23 24 19 16 14 15 16 18
38 37 38 37 37 36 36 36 36 35 34 33 32 31 30 28 25 23 21 19 16 17 14 13 12 12 13 10 11 13 14 21 22 23 28 27 27 23 21 23 23 22 17 15 15 17 18
38 38 38 38 37 37 37 37 37 36 36 35 35 34 32 31 28 25 22 19 22 17 17 15 13 14 10 10 10 10 9 15 22 21 20 24 23 26 23 23 22 25 25 19 18 17 15
40 40 40 38 39 38 37 37 37 37 37 36 36 35 33 31 30 26 23 24 21 21 18 14 16 11 10 9 9 9 10 10 14 21 20 19 22 21 24 23 23 20 23 23 18 16 15
41 41 40 40 39 38 37 37 37 36 36 35 34 35 35 32 30 28 27 29 25 20 17 16 14 10 9 9 7 7 8 5 9 13 18 17 14 17 19 20 24 24 20 17 19 19 22
42 41 41 40 39 39 38 37 36 35 35 34 34 34 32 32 31 31 32 30 29 29 22 17 15 15 12 10 10 9 9 9 7 7 14 16 15 14 13 17 20 20 23 20 19 20 21
41 41 40 41 40 39 38 37 36 34 33 33 32 33 31 31 32 31 32 30 29 25 25 23 20 19 17 13 12 12 11 11 8 9 9 12 14 17 18 17 15 16 17 23 22 23 20
40 40 40 40 40 39 38 36 34 32 31 28 29 30 31 33 34 35 28 29 28 26 26 22 22 20 19 18 17 16 15 15 11 9 10 11 12 13 13 14 15 14 14 15 18 21 26
40 40 41 40 39 38 36 34 32 30 29 28 25 24 27 33 33 35 31 30 27 26 28 24 24 21 20 20 19 18 17 18 16 15 15 15 14 13 14 13 15 17 18 17 17 20 22
38 39 39 38 37 36 34 33 32 30 30 28 28 25 26 22 34 32 32 29 29 25 25 22 23 24 20 19 20 22 20 19 19 18 18 16 18 19 19 19 18 19 21 22 23 24 24
38 38 37 37 36 36 36 34 33 31 31 32 28 26 26 26 24 32 33 30 30 26 24 22 25 21 24 25 25 23 21 21 20 18 17 19 19 18 19 22 23 24 23 23 22 20 21
39 38 36 34 33 34 34 35 35 34 34 32 32 31 25 30 29 25 28 31 27 25 24 23 21 23 23 22 24 26 25 25 25 24 21 20 19 19 21 19 20 23 25 26 23 23 21
34 34 34 33 32 31 31 33 35 37 37 35 29 29 28 28 24 29 25 27 27 28 24 21 22 21 18 18 19 20 21 24 26 26 26 22 20 19 19 19 22 22 21 22 25 26 26
24 27 29 30 31 30 30 30 32 35 38 36 34 29 26 28 30 27 26 27 26 24 24 23 21 18 18 19 16 17 17 18 21 25 25 25 20 19 19 21 24 26 23 20 20 23 20
25 26 27 28 28 29 30 31 33 33 35 36 36 36 27 23 30 29 26 24 22 22 20 23 20 16 16 16 17 16 16 14 13 14 18 22 21 18 14 13 15 14 15 15 16 21 19
24 25 27 29 30 29 28 26 29 32 33 33 32 38 31 28 23 28 27 26 22 21 17 16 19 17 20 18 17 17 16 14 13 12 12 15 15 19 16 14 14 16 14 12 11 15 20
24 24 25 26 29 31 29 27 29 31 33 32 30 33 35 26 26 27 27 23 20 22 19 16 13 17 17 18 17 15 15 15 16 13 13 14 14 14 14 14 15 11 10 10 14 17 20
27 26 27 27 26 30 31 30 28 30 32 34 27 31 32 30 21 27 26 24 26 25 23 20 17 15 18 16 17 16 16 15 16 15 16 16 16 14 16 14 13 11 14 20 22 23 24
Wind_Direction
283 285 284 284 284 285 285 284 284 285 285 285 286 286 286 285 285 285 285 283 283 281 279 278 276 276 271 264 256 259 257 252 242 237 241 240 240 244 244 247 244 254 263 259 263 270 278
282 283 283 283 284 284 285 284 285 285 285 286 287 288 288 288 287 286 284 284 283 280 278 275 272 269 263 261 254 253 253 248 244 240 241 241 244 245 248 248 243 257 260 265 270 272 274
280 280 281 282 283 283 284 285 285 285 286 286 287 288 289 289 288 288 286 284 282 281 278 272 266 263 258 254 252 252 254 246 245 244 244 244 242 244 243 250 250 258 265 272 269 274 277
279 279 279 280 281 282 282 283 284 285 286 286 287 288 288 289 289 288 288 284 283 282 277 269 263 258 258 256 253 251 248 247 245 243 241 238 239 242 242 245 253 255 260 265 265 255 280
277 277 278 279 279 281 281 282 282 284 284 285 286 287 289 289 290 291 290 289 284 281 277 267 260 257 262 255 250 247 241 241 239 234 234 235 234 239 236 239 249 252 257 255 265 264 257
275 276 277 277 279 279 280 281 280 281 283 283 285 286 288 290 290 291 293 294 285 277 275 266 263 260 258 252 246 241 236 236 234 226 230 230 235 234 232 227 239 240 248 254 256 256 259
275 274 275 276 277 277 278 278 278 279 280 282 283 285 288 289 291 293 296 292 286 277 273 264 262 259 259 258 247 237 234 233 229 225 226 230 230 231 227 230 241 242 245 251 258 256 264
274 273 273 273 275 275 275 276 276 277 279 281 283 285 287 288 290 293 292 290 288 284 278 270 265 259 256 251 246 237 231 229 227 228 225 229 232 234 231 234 236 241 244 251 266 267 258
273 272 272 272 273 273 273 275 275 276 277 278 281 283 285 286 288 288 288 284 289 293 279 281 266 261 256 241 238 235 229 228 227 227 225 229 237 230 227 232 233 239 243 247 254 269 265
271 270 270 270 271 272 272 273 274 275 275 277 279 280 282 284 283 285 285 284 291 292 283 282 265 260 251 239 242 237 233 229 227 228 226 233 229 225 228 230 231 240 243 247 253 259 265
270 269 269 269 270 271 271 273 273 274 274 275 276 277 278 278 278 279 281 285 286 284 283 278 266 262 254 240 253 236 224 225 227 226 225 231 229 226 229 229 226 242 236 237 245 253 262
269 268 268 269 270 270 271 271 272 273 273 274 274 273 275 272 271 274 278 277 276 271 266 275 263 263 260 251 249 238 224 226 227 226 232 230 229 225 229 230 225 237 230 239 245 249 255
268 268 268 269 269 270 271 272 272 271 271 272 271 270 270 267 267 268 272 266 263 256 273 274 271 270 272 252 244 234 225 219 221 219 227 229 228 228 227 220 222 224 228 248 250 244 253
268 268 268 269 267 271 272 271 271 270 270 270 269 267 265 262 259 261 262 253 251 257 263 269 272 277 254 256 244 228 227 224 229 226 222 225 229 221 224 226 227 228 228 233 244 247 256
268 267 267 268 270 270 270 271 271 270 269 268 268 264 261 258 252 252 251 248 252 250 260 269 271 263 259 254 247 231 223 238 230 223 225 223 233 231 226 223 220 223 225 230 244 248 255
267 266 266 267 269 269 270 271 271 269 268 266 264 260 257 250 245 245 246 245 247 251 256 260 257 262 262 263 243 243 229 257 242 229 224 224 224 221 222 219 225 226 220 227 235 243 249
265 266 266 266 267 268 270 270 270 268 266 264 261 257 254 242 238 241 244 243 247 250 255 252 249 252 250 247 241 244 246 224 261 253 216 223 225 219 216 221 219 223 227 233 236 241 249
266 264 266 265 266 267 267 267 267 265 262 261 257 254 247 233 236 241 240 239 242 247 246 246 247 243 244 243 245 245 235 233 265 249 225 230 226 228 233 236 228 227 230 236 241 240 247
265 265 265 265 265 265 265 264 263 260 255 255 253 253 242 230 237 235 239 239 240 242 241 243 244 242 243 243 242 240 243 239 250 255 239 244 232 228 229 231 234 229 235 243 249 246 246
266 265 264 264 263 263 261 259 257 254 247 245 250 247 239 234 237 232 231 233 236 239 241 241 241 241 241 241 241 240 241 243 251 251 252 240 231 232 230 236 236 238 244 246 248 249 256
266 265 263 262 261 260 257 253 252 248 241 240 241 243 235 237 234 230 228 230 230 234 234 234 238 235 234 240 242 244 245 250 248 250 244 243 238 235 237 238 235 242 248 251 256 254 253
267 265 262 261 259 257 254 250 247 243 237 237 239 238 236 236 237 227 224 227 225 227 229 235 234 232 233 237 240 248 247 246 247 246 247 250 244 244 248 248 249 249 250 255 256 256 260
266 262 259 258 257 255 252 247 243 240 234 237 236 236 237 235 233 227 225 221 223 223 231 231 232 232 238 241 244 247 247 245 245 248 249 249 246 244 250 253 252 253 246 247 249 255 260
265 256 255 254 254 253 250 246 241 236 233 232 232 229 229 232 228 226 224 220 220 222 226 231 229 230 233 238 246 245 244 245 243 243 239 243 248 248 251 253 249 257 259 257 254 261 263
269 256 254 252 251 249 247 245 241 234 229 228 226 225 228 230 227 229 225 220 221 221 223 227 227 230 231 241 240 241 240 244 242 237 233 233 238 247 250 248 262 265 261 258 254 262 270
269 262 256 252 248 248 247 248 237 230 226 224 225 222 227 227 225 221 219 213 212 218 224 224 224 222 224 226 228 235 234 235 236 232 228 222 229 233 242 252 256 255 247 263 264 266 269
270 264 258 253 249 246 244 242 228 224 221 220 223 219 222 227 221 213 212 215 218 216 224 220 220 226 220 224 229 229 232 230 230 222 215 211 220 227 238 249 261 255 260 265 264 270 279
271 267 262 257 250 242 238 234 225 221 218 216 219 215 215 220 218 211 213 212 213 216 217 216 217 220 219 221 225 223 224 223 224 222 212 214 217 227 234 247 259 255 252 250 284 288 285
273 270 264 257 251 238 232 226 222 217 215 213 216 210 209 212 213 215 221 223 221 221 224 221 225 217 213 219 223 224 225 224 221 227 228 234 232 235 234 243 254 263 265 282 289 288 289